TimeEDT,TemperatureF,Dew PointF,Humidity,Sea Level PressureIn,VisibilityMPH,Wind Direction,Wind SpeedMPH,Gust SpeedMPH,PrecipitationIn,Events,Conditions,WindDirDegrees,DateUTC
12:56 AM,42.1,41.0,96,30.31,10.0,Calm,Calm,-,N/A,,Clear,0,2012-03-28 04:56:00
1:56 AM,41.0,39.9,96,30.29,10.0,Calm,Calm,-,N/A,,Clear,0,2012-03-28 05:56:00
2:56 AM,41.0,39.9,96,30.28,10.0,Calm,Calm,-,N/A,,Clear,0,2012-03-28 06:56:00
3:56 AM,41.0,39.0,93,30.26,10.0,Calm,Calm,-,N/A,,Clear,0,2012-03-28 07:56:00
4:56 AM,39.9,39.0,97,30.24,10.0,Calm,Calm,-,N/A,,Clear,0,2012-03-28 08:56:00
5:56 AM,39.0,37.9,96,30.23,10.0,Calm,Calm,-,N/A,,Clear,0,2012-03-28 09:56:00
6:56 AM,39.9,37.9,93,30.22,10.0,Calm,Calm,-,N/A,,Partly Cloudy,0,2012-03-28 10:56:00
7:56 AM,46.0,44.1,93,30.23,10.0,Calm,Calm,-,N/A,,Partly Cloudy,0,2012-03-28 11:56:00
8:56 AM,55.9,48.0,75,30.22,10.0,Calm,Calm,-,N/A,,Partly Cloudy,0,2012-03-28 12:56:00
9:56 AM,62.1,50.0,65,30.22,10.0,SSW,5.8,-,N/A,,Partly Cloudy,210,2012-03-28 13:56:00
10:56 AM,66.9,48.0,51,30.20,10.0,WSW,12.7,-,N/A,,Scattered Clouds,240,2012-03-28 14:56:00
11:56 AM,70.0,52.0,53,30.17,10.0,West,12.7,-,N/A,,Mostly Cloudy,260,2012-03-28 15:56:00
12:56 PM,72.0,54.0,53,30.12,10.0,WSW,18.4,29.9,N/A,,Clear,250,2012-03-28 16:56:00
1:56 PM,73.9,55.0,52,30.08,10.0,SW,15.0,24.2,N/A,,Mostly Cloudy,230,2012-03-28 17:56:00
2:56 PM,75.9,55.9,50,30.02,10.0,SW,15.0,31.1,N/A,,Mostly Cloudy,220,2012-03-28 18:56:00
3:56 PM,77.0,57.0,50,29.98,10.0,SW,11.5,23.0,N/A,,Clear,220,2012-03-28 19:56:00
4:56 PM,75.9,57.9,54,29.96,10.0,SW,10.4,24.2,N/A,,Clear,230,2012-03-28 20:56:00
5:56 PM,73.9,57.9,57,29.94,10.0,SW,10.4,21.9,N/A,,Clear,230,2012-03-28 21:56:00
6:56 PM,72.0,59.0,64,29.93,10.0,SW,11.5,23.0,N/A,,Clear,230,2012-03-28 22:56:00
7:56 PM,69.1,60.1,73,29.93,10.0,SSW,6.9,18.4,N/A,,Clear,210,2012-03-28 23:56:00
8:56 PM,68.0,60.1,76,29.94,10.0,SW,9.2,-,N/A,,Clear,220,2012-03-29 00:56:00
9:56 PM,66.9,60.1,79,29.95,10.0,SSW,6.9,-,N/A,,Clear,210,2012-03-29 01:56:00
10:56 PM,66.9,60.1,79,29.93,10.0,SW,9.2,-,N/A,,Clear,220,2012-03-29 02:56:00
11:56 PM,66.9,59.0,76,29.92,10.0,WSW,10.4,-,N/A,,Clear,240,2012-03-29 03:56:00